SCP
0 0 0 0 0 0 0 0 0 0 0 0 0 0 0 0 0 0 0 0 0 1 2 3 3 3 3 2 2 2 2 2 2 1 1 1 1 1 1 1 1 1 1 1 1 1 1 2 2
0 0 0 0 0 0 0 0 0 0 0 0 0 0 0 0 0 0 0 0 0 1 2 3 3 3 3 2 2 2 2 2 2 2 1 1 1 1 1 1 1 1 1 1 1 1 1 1 2
0 0 0 0 0 0 0 0 0 0 0 0 0 0 0 0 0 0 0 0 0 1 1 2 3 3 3 2 2 2 3 3 2 2 2 1 1 1 1 1 1 1 1 1 1 1 1 1 1
0 0 0 0 0 0 0 0 0 0 0 0 0 0 0 0 0 0 0 0 0 1 1 2 3 3 3 2 2 2 3 3 2 2 2 2 1 1 1 1 1 1 1 1 1 1 1 2 1
1 0 0 0 0 0 0 0 0 0 0 0 0 0 0 0 0 0 0 0 0 1 1 2 2 3 3 3 3 3 3 3 2 2 2 2 2 2 1 1 1 1 1 1 1 2 2 2 1
1 0 0 0 0 0 0 0 0 0 0 0 0 0 0 0 0 0 0 0 0 0 1 1 2 3 3 3 3 3 3 3 3 2 2 2 2 2 1 1 1 1 1 2 2 2 2 2 1
1 0 0 0 0 0 0 0 0 0 0 0 0 0 0 0 0 0 0 0 0 0 1 1 2 2 3 3 3 3 3 3 2 2 2 2 2 2 1 1 1 1 2 2 2 2 2 2 2
1 0 0 0 0 0 0 0 0 0 0 0 0 0 0 0 0 0 0 0 0 0 1 1 2 2 2 2 3 3 3 3 2 2 2 2 2 2 1 1 1 1 2 2 2 2 2 2 1
0 0 0 0 0 0 0 0 0 0 0 0 0 0 0 0 0 0 0 0 0 0 1 1 2 2 2 2 2 3 3 2 2 2 2 2 2 1 1 1 1 1 2 2 1 2 2 1 1
0 0 0 0 0 0 0 0 0 0 0 0 0 0 0 0 0 0 0 0 0 0 1 1 1 2 2 2 2 3 3 2 2 2 2 2 2 1 1 1 1 1 1 1 1 1 1 1 1
0 0 0 0 0 0 0 0 0 0 0 0 0 0 0 0 0 0 0 0 0 0 1 1 1 2 2 2 3 3 3 3 2 2 2 2 2 2 2 1 1 1 1 1 1 1 1 2 2
0 0 0 0 0 0 0 0 0 0 0 0 0 0 0 0 0 0 0 0 0 0 1 1 1 1 2 2 3 3 3 3 3 3 2 2 2 2 2 2 2 2 2 2 2 2 2 2 2
0 0 0 0 0 0 0 0 0 0 0 0 0 0 0 0 0 0 0 0 0 0 1 1 1 1 2 2 3 3 3 4 4 3 2 2 2 2 2 2 2 2 2 2 2 2 2 2 2
0 0 0 0 0 0 0 0 0 0 0 0 0 0 0 0 0 0 0 0 0 0 1 1 1 1 2 3 3 2 3 3 3 3 2 2 2 2 2 2 2 2 2 2 2 2 2 2 2
0 0 0 0 0 0 0 0 0 0 0 0 0 0 0 0 0 0 0 0 0 0 1 1 1 1 2 2 2 2 2 3 3 3 2 2 2 2 2 2 2 2 2 2 2 2 2 2 2
0 0 0 0 0 0 0 0 0 0 0 0 0 0 1 1 1 0 0 0 0 0 0 1 1 1 2 2 2 2 2 2 3 2 2 2 1 1 1 2 1 1 2 2 2 2 2 2 2
0 0 0 0 0 0 0 0 0 0 0 0 0 0 1 1 1 0 0 1 1 1 1 1 1 1 1 2 2 2 2 2 2 2 2 1 1 1 1 2 1 1 1 2 2 2 2 2 2
0 0 0 0 0 0 0 0 0 0 0 0 0 0 0 0 0 1 1 1 1 1 1 1 1 1 1 2 2 2 2 2 2 2 1 1 1 1 2 2 1 1 1 1 1 2 2 2 2
0 0 0 0 0 0 0 0 0 0 0 0 0 0 0 0 0 0 1 1 1 1 1 1 1 1 1 1 2 3 3 2 2 1 1 1 1 2 2 2 1 1 1 1 1 2 2 2 2
0 0 0 0 0 0 0 0 0 0 0 0 0 0 0 0 0 0 0 1 1 1 1 1 1 1 1 1 1 2 2 2 2 1 1 1 1 2 2 1 1 1 1 1 1 1 2 2 2
0 0 0 0 0 0 0 0 0 0 0 0 0 0 0 0 0 0 0 0 1 1 2 2 1 1 1 1 1 1 1 2 2 2 1 1 1 1 1 1 1 1 1 1 1 1 1 2 2
0 0 0 0 0 0 0 0 0 0 0 0 0 0 0 0 0 0 0 0 0 1 1 2 2 1 1 1 1 1 1 1 1 1 1 1 1 1 1 1 1 1 2 1 1 1 1 1 1
0 0 0 0 0 0 0 0 0 0 0 0 0 0 0 0 0 0 0 0 0 0 1 1 1 1 1 1 1 1 1 1 1 1 1 1 1 1 1 1 1 2 2 2 2 1 1 1 1
0 0 0 0 0 0 0 0 0 0 0 0 0 0 0 0 0 0 0 0 0 0 0 0 1 1 1 1 1 1 1 1 1 1 1 0 0 0 0 1 1 1 2 2 2 2 1 1 1
0 0 0 0 0 0 0 0 0 0 0 0 0 0 0 0 0 0 0 0 0 0 0 0 0 1 1 1 1 1 1 1 1 1 1 0 0 0 0 0 0 1 1 2 2 2 1 1 1
0 0 0 0 0 0 0 0 0 0 0 0 0 0 0 0 0 0 0 0 0 0 0 0 0 0 1 1 1 1 1 1 1 1 1 0 0 0 0 0 0 0 1 1 1 2 2 1 1
0 0 0 0 0 0 0 0 0 0 0 0 0 0 0 0 0 0 0 0 0 0 0 0 0 0 1 1 1 1 1 1 1 1 0 0 0 0 0 0 0 0 0 1 1 1 2 2 1
0 0 0 0 0 0 0 0 0 0 0 0 0 0 0 0 0 0 0 0 0 0 0 0 0 0 1 1 0 1 1 1 1 1 1 1 1 0 0 0 0 0 0 1 1 1 2 2 1
0 0 0 0 0 0 0 0 0 0 0 0 0 0 0 0 0 0 0 0 0 0 0 0 0 1 1 0 0 1 1 1 1 1 1 1 1 1 0 0 0 0 0 0 1 1 1 1 1
0 0 0 0 0 0 0 0 0 0 0 0 0 0 0 0 0 0 0 0 0 0 0 0 0 0 1 0 1 1 1 1 1 1 1 1 1 1 1 0 0 0 0 0 1 1 1 1 1
Wind_Speed
3 4 4 4 5 6 8 5 4 2 2 1 3 4 4 4 3 3 5 3 2 3 7 11 9 10 10 10 10 10 10 10 9 9 9 9 9 9 9 9 9 8 8 8 8 8 8 9 9
4 5 4 4 7 8 6 5 6 4 1 2 3 5 5 3 2 3 3 3 1 3 6 9 9 9 10 10 9 9 9 9 9 9 9 9 9 9 9 8 8 8 7 7 7 7 8 8 8
5 4 5 5 7 8 3 2 2 2 3 3 3 3 4 3 2 3 5 2 0 3 5 7 8 9 10 10 9 9 9 9 9 9 9 9 9 9 9 8 8 7 7 6 6 7 7 8 8
4 4 5 7 11 8 6 1 1 4 2 2 4 3 1 1 3 5 5 1 0 2 5 6 7 9 9 10 10 9 9 9 10 9 9 9 9 9 9 8 8 7 7 6 6 6 7 7 7
4 4 7 10 12 8 7 6 5 6 4 3 5 6 4 1 3 5 3 1 1 2 4 6 7 9 9 9 9 9 9 9 10 10 10 10 10 9 9 8 8 8 7 7 7 6 7 7 7
5 5 8 11 11 8 7 6 8 9 7 6 6 8 5 2 3 5 3 2 2 2 4 5 8 8 9 9 9 9 9 9 9 10 10 10 10 10 9 9 9 8 8 8 8 7 7 7 7
5 5 8 9 8 8 5 5 7 8 9 7 6 8 5 2 4 4 3 3 3 3 4 5 7 8 9 8 8 8 8 9 9 9 9 9 9 9 10 9 9 9 9 9 9 8 8 8 7
4 5 8 8 9 7 3 4 5 8 8 5 6 7 5 4 5 5 4 3 3 3 5 6 7 8 9 9 9 8 8 8 9 9 8 8 8 9 9 9 9 9 9 9 10 9 9 8 8
5 7 9 8 7 4 2 5 5 6 9 9 8 9 9 6 5 5 5 4 4 4 5 6 7 7 7 8 8 9 9 9 8 8 8 8 9 9 9 10 8 9 9 10 10 10 10 8 8
7 9 9 5 5 5 5 8 8 7 10 11 10 9 8 7 7 7 7 6 6 6 6 6 7 7 7 6 7 7 8 8 9 8 9 8 8 7 7 7 8 9 9 9 10 10 10 9 7
7 9 6 6 7 8 10 10 8 10 12 11 11 10 8 8 8 8 7 7 7 6 6 6 7 7 7 5 5 5 5 6 8 9 9 7 7 5 6 5 6 8 9 8 8 9 8 8 6
7 8 8 7 5 8 11 11 11 14 15 12 12 11 10 10 9 8 8 7 6 6 6 6 7 7 7 6 5 6 5 5 5 7 9 7 5 6 5 5 6 6 5 6 7 6 8 9 9
10 8 8 9 10 11 13 15 15 16 15 12 11 10 11 10 9 8 8 8 6 6 6 6 6 7 7 7 5 6 6 6 6 6 7 8 6 6 6 5 5 6 6 7 7 7 8 9 9
5 8 10 10 11 9 12 14 12 13 9 9 9 10 9 9 8 8 7 7 7 7 7 6 7 7 7 7 6 6 6 6 6 6 7 9 7 7 6 6 6 6 6 7 7 8 8 7 7
5 8 10 9 8 6 8 13 11 10 9 11 10 9 8 8 8 8 7 7 7 7 6 6 6 7 7 8 8 6 6 6 6 6 8 9 9 8 7 7 6 6 7 8 7 8 7 7 7
5 7 8 4 5 4 7 12 6 6 9 11 10 9 8 7 7 6 6 6 6 6 5 5 5 6 7 6 6 5 6 6 5 6 7 9 10 10 8 7 7 7 6 6 6 7 7 7 7
7 7 8 6 4 5 8 13 11 9 10 11 9 8 7 6 6 5 5 5 4 4 4 4 4 5 5 5 5 6 6 6 5 6 6 8 10 10 9 8 7 7 6 7 7 7 7 7 8
6 7 8 8 3 7 12 16 15 11 10 10 8 7 5 5 4 3 3 3 3 3 3 3 4 4 4 4 4 4 5 5 5 6 7 9 8 10 9 8 9 8 7 7 8 8 8 7 7
6 9 11 10 6 9 13 17 16 12 9 9 7 6 5 4 3 2 3 2 2 2 3 3 3 3 3 3 4 4 5 5 5 6 8 9 9 10 9 8 9 9 8 9 10 9 9 8 6
9 11 12 9 4 8 13 17 14 9 7 6 5 4 4 3 3 2 2 2 2 2 2 3 2 3 3 3 4 4 4 4 5 5 7 9 9 9 8 10 9 9 9 11 11 10 8 7 7
11 12 11 9 9 6 9 11 6 3 3 3 4 3 3 3 3 3 2 2 2 2 2 3 3 3 3 3 3 3 4 4 4 5 5 7 8 10 10 11 10 10 10 9 11 10 11 9 8
10 8 9 9 8 5 4 8 6 4 5 4 4 3 3 2 3 3 3 2 2 2 2 3 3 4 3 3 4 5 5 5 6 5 5 7 8 9 10 10 11 10 10 10 11 11 10 10 8
6 2 5 7 8 8 7 8 8 4 5 4 3 1 2 2 3 3 3 3 3 3 3 3 4 4 4 4 4 5 5 6 5 5 7 7 7 8 9 10 10 11 10 11 12 11 11 10 10
4 3 3 4 5 8 7 9 7 3 4 3 2 0 1 1 2 3 3 3 4 4 3 4 4 5 4 5 5 5 6 7 7 7 6 6 5 6 9 9 10 10 10 11 11 11 13 11 12
6 5 4 5 6 6 3 7 8 1 2 3 3 2 1 1 2 3 3 3 4 4 4 4 5 5 5 5 6 6 7 8 8 7 7 6 6 6 7 8 9 9 10 11 11 11 12 13 13
9 8 6 5 5 3 4 8 5 1 2 3 3 2 1 1 2 3 4 4 4 5 5 5 5 5 5 5 6 6 6 6 6 8 7 7 6 7 8 9 9 10 11 11 11 10 12 11 13
7 8 4 4 4 6 7 6 6 3 4 3 2 1 0 1 3 4 5 5 5 5 6 6 6 6 5 5 5 5 5 6 7 7 7 7 7 7 9 9 10 10 10 10 10 10 12 12 12
5 5 5 6 5 7 7 8 6 5 5 4 3 1 3 3 4 5 5 6 6 6 6 5 6 5 5 5 4 4 5 5 6 6 7 7 8 7 8 9 9 10 10 10 11 10 11 12 12
8 7 7 6 5 6 7 5 2 5 4 3 3 3 4 4 5 5 5 6 6 6 6 5 5 5 5 5 4 4 5 5 6 6 7 7 8 8 8 9 9 10 10 10 10 11 11 12 12
9 10 11 8 8 7 7 7 1 4 4 4 4 5 5 5 5 5 5 6 6 6 6 6 6 5 5 5 5 5 5 5 6 6 7 7 8 8 8 8 9 9 9 10 11 12 12 13 13
Wind_Direction
185 188 201 214 224 229 238 225 230 208 206 262 281 265 272 278 293 19 46 27 21 150 166 170 176 175 175 176 175 172 170 166 166 167 167 166 165 164 162 161 157 153 150 149 146 143 143 142 138
181 182 203 221 238 229 225 221 223 235 304 309 257 250 253 255 314 357 23 19 17 151 166 172 169 177 175 176 176 176 173 171 169 171 172 172 171 170 168 164 160 156 153 151 150 146 144 144 143
174 211 219 221 232 237 223 166 225 255 283 272 267 263 280 292 346 356 17 10 152 157 171 164 167 179 178 178 176 178 178 176 175 175 177 177 178 177 175 171 167 159 156 156 155 153 148 146 147
189 195 220 235 234 237 256 242 313 273 248 250 277 262 233 347 343 356 2 357 204 168 181 166 177 184 185 183 180 180 182 183 183 181 181 182 184 183 181 178 173 165 160 160 162 161 159 156 154
214 215 220 231 239 240 249 270 274 275 274 266 277 279 263 235 333 339 346 320 259 190 193 179 184 192 190 189 187 184 185 187 188 189 190 190 189 189 187 183 178 175 173 173 174 175 174 174 169
197 220 230 235 234 240 245 255 261 267 270 274 277 276 265 238 321 339 333 293 269 227 208 194 190 203 198 195 194 192 191 192 194 195 197 197 197 195 191 189 184 185 185 186 188 186 184 183 183
219 222 241 248 248 244 242 248 254 270 271 274 282 278 262 248 344 335 310 287 269 240 219 213 203 203 206 202 199 197 197 198 198 200 202 205 203 201 199 193 191 194 196 195 197 197 194 190 191
235 234 237 239 244 246 236 251 264 278 281 288 271 268 279 335 342 319 307 289 267 245 230 223 218 212 211 206 199 200 201 203 203 206 205 204 206 206 204 200 196 199 203 202 203 203 204 201 199
217 233 235 232 238 241 236 266 275 282 271 265 258 273 299 316 304 294 284 270 260 248 240 232 228 221 220 219 205 202 203 203 206 209 203 204 213 212 206 208 197 202 206 207 208 207 210 206 201
211 232 237 242 253 268 276 283 292 277 270 266 260 265 279 280 277 274 273 268 260 249 239 233 230 226 223 222 216 213 211 209 213 218 212 214 221 220 218 196 197 205 208 211 213 213 212 214 208
216 240 248 249 263 279 280 279 275 273 272 275 284 290 289 284 276 271 269 267 264 260 247 240 234 229 224 221 223 218 215 215 218 220 218 219 222 220 217 206 196 206 210 214 207 211 218 218 216
230 244 253 259 270 275 279 280 273 262 270 288 289 288 285 279 273 267 268 269 267 260 250 245 239 233 229 224 225 223 217 215 217 218 218 217 217 221 218 216 214 214 214 216 218 222 223 225 221
233 249 254 263 268 271 273 269 273 270 273 278 279 276 277 276 272 270 270 267 263 259 252 243 240 237 231 226 226 228 221 218 217 218 218 218 217 222 223 222 218 221 222 219 222 225 226 227 227
241 254 265 270 267 265 266 268 261 263 268 271 274 274 274 273 273 271 267 265 260 257 253 245 240 238 234 228 225 228 226 220 220 219 221 221 222 222 225 226 223 225 225 226 227 229 230 232 231
254 262 264 254 255 258 273 265 243 257 268 275 276 273 268 269 268 267 269 267 266 263 259 251 246 239 234 235 232 232 229 223 220 221 223 223 224 224 226 228 226 225 225 227 231 232 233 235 233
232 243 249 231 250 246 259 268 258 267 277 281 279 274 269 265 262 267 270 268 267 263 257 254 248 239 231 235 238 236 232 224 223 225 227 227 227 226 227 229 229 227 224 222 225 228 229 232 234
216 243 255 262 231 247 252 272 279 282 281 278 275 272 266 262 261 267 273 269 264 259 255 248 244 240 232 234 238 242 231 226 226 227 229 229 230 229 228 230 231 227 225 224 225 227 228 234 236
230 247 255 264 258 265 266 271 281 284 278 273 269 263 258 257 259 264 272 268 261 260 257 247 239 239 230 225 234 238 232 231 230 230 231 232 232 232 233 232 232 228 225 225 225 226 228 234 236
257 258 267 273 287 280 272 278 283 283 272 265 257 252 249 258 263 265 266 261 253 252 254 248 244 235 229 229 227 227 231 233 234 233 235 234 235 234 234 235 233 228 226 228 228 227 229 229 230
242 257 268 281 280 282 286 284 281 271 258 256 251 244 246 258 268 273 262 252 253 255 252 245 249 248 242 244 237 236 242 239 242 240 240 238 237 236 236 236 233 230 229 230 229 226 227 228 217
238 247 264 283 304 267 289 278 250 236 227 237 241 244 254 256 274 280 281 275 264 256 256 257 247 247 250 253 244 239 241 239 237 238 240 240 240 237 234 237 238 234 231 232 230 225 225 227 221
247 241 256 272 283 279 290 292 266 239 235 233 230 233 248 258 284 295 305 312 299 288 275 263 255 248 251 251 247 241 247 249 252 251 246 247 246 245 240 238 238 238 235 234 232 227 228 228 226
241 234 242 256 263 273 241 256 270 228 240 226 212 235 263 289 312 309 306 306 310 314 305 289 276 264 261 255 248 248 253 258 260 257 255 253 248 245 245 243 242 240 238 237 234 230 228 227 228
194 197 227 228 236 253 234 236 268 223 228 203 189 214 287 325 333 326 321 317 319 326 318 307 294 285 277 266 252 249 258 260 258 257 258 258 256 250 248 246 244 243 241 239 235 232 230 230 231
199 211 231 224 219 241 168 237 257 271 234 229 233 253 296 344 351 341 333 329 327 326 319 305 300 296 293 278 262 256 258 262 257 258 257 259 258 256 256 254 251 247 244 242 239 235 234 232 232
202 218 232 254 257 258 211 241 256 296 253 240 241 248 292 12 3 347 336 327 325 323 318 313 305 299 298 290 278 267 264 263 262 258 260 257 257 258 260 257 257 256 252 248 242 238 237 236 233
189 215 247 268 279 270 247 251 267 225 217 204 205 215 294 348 353 343 337 333 324 320 320 317 308 301 298 295 289 281 273 267 268 269 264 261 261 264 262 261 259 258 257 252 249 243 240 239 235
239 182 184 215 241 252 252 251 239 201 208 207 218 279 320 325 330 333 331 335 330 324 320 320 315 305 299 296 293 290 286 280 278 276 276 269 267 267 266 263 261 260 258 255 251 247 243 242 238
184 194 211 217 243 257 264 256 227 209 214 238 262 298 308 306 316 324 326 330 330 331 327 322 319 316 310 306 299 294 293 292 287 283 280 280 273 269 267 266 265 262 261 258 254 249 244 242 243
224 216 207 220 225 236 264 269 227 232 242 260 282 297 301 307 311 315 320 324 328 332 331 325 321 318 311 306 300 298 299 295 289 288 289 287 282 276 272 269 266 264 263 262 258 255 248 245 243